| time (UTC) | temp C | wind direction | speed KPH | gust KPH | rain 1hr cm | rain 24hr cm | rain mn cm | humidity % | barometer mb |
| 20260505041548 | 11 | 118 | 0.0 | 0.0 | 0.00 | 0.23 | 0.23 | 94 | 1009.9 |
| 20260505041032 | 11 | 118 | 0.0 | 0.0 | 0.00 | 0.23 | 0.23 | 94 | 1009.9 |
| 20260505040530 | 11 | 118 | 0.0 | 0.0 | 0.00 | 0.23 | 0.23 | 94 | 1009.9 |
| 20260505040038 | 11 | 118 | 0.0 | 0.0 | 0.00 | 0.23 | 0.23 | 94 | 1009.9 |
| 20260505035527 | 11 | 118 | 0.0 | 0.0 | 0.00 | 0.23 | 0.23 | 94 | 1010.0 |
| 20260505035026 | 11 | 118 | 0.0 | 0.0 | 0.00 | 0.23 | 0.23 | 94 | 1010.0 |
| 20260505034527 | 11 | 118 | 0.0 | 0.0 | 0.00 | 0.23 | 0.23 | 94 | 1010.0 |
| 20260505034024 | 11 | 118 | 0.0 | 0.0 | 0.00 | 0.23 | 0.23 | 94 | 1009.9 |
| 20260505033525 | 11 | 118 | 0.0 | 0.0 | 0.00 | 0.23 | 0.23 | 94 | 1010.0 |
| 20260505033024 | 11 | 118 | 0.0 | 0.0 | 0.00 | 0.23 | 0.23 | 94 | 1010.0 |
| 20260505032522 | 11 | 118 | 0.0 | 0.0 | 0.00 | 0.23 | 0.23 | 94 | 1010.0 |
| 20260505032022 | 11 | 118 | 0.0 | 0.0 | 0.00 | 0.23 | 0.23 | 93 | 1010.0 |
| 20260505031534 | 11 | 118 | 0.0 | 0.0 | 0.00 | 0.23 | 0.23 | 93 | 1010.1 |
| 20260505031020 | 11 | 118 | 0.0 | 0.0 | 0.00 | 0.23 | 0.23 | 93 | 1010.1 |
| 20260505030520 | 11 | 118 | 0.0 | 0.0 | 0.00 | 0.23 | 0.23 | 93 | 1010.1 |
| 20260505030019 | 11 | 118 | 0.0 | 0.0 | 0.00 | 0.23 | 0.23 | 93 | 1010.1 |
| 20260505025519 | 12 | 118 | 0.0 | 0.0 | 0.00 | 0.23 | 0.23 | 93 | 1010.1 |
| 20260505025021 | 12 | 118 | 0.0 | 0.0 | 0.00 | 0.23 | 0.23 | 93 | 1010.2 |
| 20260505024518 | 12 | 118 | 0.0 | 0.0 | 0.00 | 0.23 | 0.23 | 93 | 1010.1 |
| 20260505024018 | 12 | 118 | 0.0 | 0.0 | 0.00 | 0.23 | 0.23 | 93 | 1010.2 |
| 20260505023517 | 12 | 118 | 0.0 | 0.0 | 0.00 | 0.23 | 0.23 | 93 | 1010.1 |
| 20260505023017 | 12 | 118 | 0.0 | 0.0 | 0.00 | 0.23 | 0.23 | 93 | 1010.2 |
| 20260505022517 | 12 | 118 | 0.0 | 0.0 | 0.00 | 0.23 | 0.23 | 93 | 1010.1 |
| 20260505022017 | 12 | 118 | 0.0 | 0.0 | 0.00 | 0.23 | 0.23 | 93 | 1010.2 |
| 20260505021517 | 12 | 118 | 0.0 | 0.0 | 0.00 | 0.23 | 0.23 | 93 | 1010.2 |
| 20260505021016 | 12 | 118 | 0.0 | 0.0 | 0.00 | 0.23 | 0.23 | 93 | 1010.2 |
| 20260505020515 | 12 | 118 | 0.0 | 0.0 | 0.00 | 0.23 | 0.23 | 93 | 1010.2 |
| 20260505020015 | 12 | 118 | 0.0 | 0.0 | 0.00 | 0.23 | 0.23 | 93 | 1010.2 |
| 20260505015517 | 12 | 118 | 0.0 | 0.0 | 0.00 | 0.23 | 0.23 | 93 | 1010.1 |
| 20260505015015 | 12 | 118 | 0.0 | 0.0 | 0.00 | 0.23 | 0.23 | 93 | 1010.1 |
| 20260505014513 | 12 | 118 | 0.0 | 0.0 | 0.00 | 0.23 | 0.23 | 92 | 1010.1 |
| 20260505014012 | 12 | 118 | 0.0 | 0.0 | 0.00 | 0.23 | 0.23 | 92 | 1010.3 |
| 20260505013516 | 12 | 118 | 0.0 | 0.0 | 0.00 | 0.23 | 0.23 | 92 | 1010.3 |
| 20260505013012 | 12 | 118 | 0.0 | 0.0 | 0.00 | 0.23 | 0.23 | 92 | 1010.3 |
| 20260505012613 | 12 | 118 | 0.0 | 0.0 | 0.00 | 0.23 | 0.23 | 92 | 1010.3 |
| 20260505012011 | 12 | 118 | 0.0 | 0.0 | 0.00 | 0.23 | 0.23 | 92 | 1010.4 |
| 20260505011511 | 12 | 118 | 0.0 | 0.0 | 0.00 | 0.23 | 0.23 | 92 | 1010.4 |
| 20260505011009 | 12 | 118 | 0.0 | 0.0 | 0.00 | 0.23 | 0.23 | 92 | 1010.4 |
| 20260505010509 | 12 | 118 | 0.0 | 0.0 | 0.00 | 0.23 | 0.23 | 92 | 1010.5 |
| 20260505010009 | 12 | 118 | 0.0 | 0.0 | 0.00 | 0.23 | 0.23 | 92 | 1010.6 |
| 20260505005508 | 12 | 118 | 0.0 | 0.0 | 0.00 | 0.23 | 0.23 | 91 | 1010.7 |
| 20260505005008 | 12 | 118 | 0.0 | 0.0 | 0.00 | 0.23 | 0.23 | 91 | 1010.7 |
| 20260505004507 | 12 | 118 | 0.0 | 0.0 | 0.00 | 0.23 | 0.23 | 91 | 1010.8 |
| 20260505004007 | 12 | 118 | 0.0 | 0.0 | 0.00 | 0.23 | 0.23 | 91 | 1010.8 |
| 20260505003508 | 12 | 118 | 0.0 | 0.0 | 0.00 | 0.23 | 0.23 | 91 | 1010.7 |
| 20260505003005 | 12 | 118 | 0.0 | 0.0 | 0.03 | 0.23 | 0.23 | 90 | 1010.8 |
| 20260505002505 | 12 | 118 | 0.0 | 1.6 | 0.03 | 0.23 | 0.23 | 90 | 1010.8 |
| 20260505002004 | 12 | 118 | 0.0 | 1.6 | 0.03 | 0.23 | 0.23 | 89 | 1010.9 |
| 20260505001503 | 13 | 118 | 0.0 | 1.6 | 0.03 | 0.23 | 0.23 | 89 | 1010.9 |
| 20260505001004 | 13 | 118 | 0.0 | 1.6 | 0.03 | 0.23 | 0.23 | 88 | 1011.0 |
| 20260505000501 | 13 | 118 | 0.0 | 4.8 | 0.05 | 0.23 | 0.23 | 87 | 1011.0 |
| 20260505000001 | 13 | 118 | 1.6 | 6.4 | 0.05 | 0.23 | 0.23 | 86 | 1010.9 |
| 20260504235503 | 14 | 110 | 0.0 | 6.4 | 0.05 | 0.23 | 0.23 | 86 | 1010.9 |
| 20260504235001 | 14 | 130 | 1.6 | 6.4 | 0.10 | 0.23 | 0.23 | 86 | 1010.8 |
| 20260504234600 | 14 | 116 | 3.2 | 6.4 | 0.15 | 0.23 | 0.23 | 87 | 1010.9 |
| 20260504234100 | 13 | 116 | 1.6 | 6.4 | 0.18 | 0.23 | 0.23 | 87 | 1011.1 |
| 20260504233559 | 13 | 116 | 3.2 | 6.4 | 0.20 | 0.23 | 0.23 | 88 | 1011.0 |
| 20260504233109 | 13 | 116 | 1.6 | 6.4 | 0.20 | 0.20 | 0.20 | 89 | 1011.2 |
| 20260504232558 | 13 | 128 | 0.0 | 6.4 | 0.20 | 0.20 | 0.20 | 89 | 1011.4 |
| 20260504232057 | 13 | 121 | 0.0 | 6.4 | 0.20 | 0.20 | 0.20 | 89 | 1011.4 |
| 20260504231556 | 13 | 115 | 1.6 | 6.4 | 0.20 | 0.20 | 0.20 | 89 | 1011.5 |
| 20260504231054 | 13 | 116 | 0.0 | 0.0 | 0.20 | 0.20 | 0.20 | 89 | 1012.0 |
| 20260504230553 | 13 | 116 | 0.0 | 3.2 | 0.18 | 0.18 | 0.18 | 88 | 1012.0 |
| 20260504230052 | 13 | 116 | 0.0 | 3.2 | 0.15 | 0.15 | 0.15 | 88 | 1012.3 |
| 20260504225551 | 13 | 296 | 1.6 | 3.2 | 0.15 | 0.15 | 0.15 | 87 | 1012.7 |
| 20260504225049 | 13 | 296 | 0.0 | 3.2 | 0.13 | 0.13 | 0.13 | 86 | 1012.8 |
| 20260504224553 | 13 | 296 | 0.0 | 3.2 | 0.08 | 0.08 | 0.08 | 86 | 1012.9 |
| 20260504224045 | 14 | 296 | 0.0 | 1.6 | 0.05 | 0.05 | 0.05 | 84 | 1013.0 |
| 20260504223544 | 15 | 296 | 0.0 | 1.6 | 0.03 | 0.03 | 0.03 | 82 | 1013.0 |
| 20260504223059 | 15 | 296 | 0.0 | 0.0 | 0.00 | 0.00 | 0.00 | 78 | 1013.2 |
| 20260504222040 | 15 | 296 | 0.0 | 3.2 | 0.00 | 0.00 | 0.00 | 75 | 1013.4 |
| 20260504221539 | 15 | 275 | 0.0 | 3.2 | 0.00 | 0.00 | 0.00 | 74 | 1013.5 |
| 20260504221042 | 15 | 275 | 0.0 | 4.8 | 0.00 | 0.00 | 0.00 | 71 | 1013.5 |
| 20260504220537 | 16 | 286 | 0.0 | 6.4 | 0.00 | 0.00 | 0.00 | 70 | 1013.5 |
| 20260504220136 | 16 | 335 | 1.6 | 8.0 | 0.00 | 0.00 | 0.00 | 69 | 1013.4 |
| 20260504215600 | 15 | 248 | 0.0 | 8.0 | 0.00 | 0.00 | 0.00 | 70 | 1013.4 |
| 20260504215059 | 15 | 128 | 0.0 | 0.0 | 0.00 | 0.00 | 0.00 | 70 | 1012.5 |
| 20260504214554 | 16 | 128 | 0.0 | 0.0 | 0.00 | 0.00 | 0.00 | 68 | 1012.3 |
| 20260504214053 | 16 | 128 | 0.0 | 0.0 | 0.00 | 0.00 | 0.00 | 68 | 1012.3 |
| 20260504213553 | 16 | 128 | 0.0 | 0.0 | 0.00 | 0.00 | 0.00 | 68 | 1012.3 |
| 20260504213103 | 16 | 128 | 0.0 | 0.0 | 0.00 | 0.00 | 0.00 | 69 | 1012.2 |
| 20260504212554 | 16 | 128 | 0.0 | 0.0 | 0.00 | 0.00 | 0.00 | 69 | 1012.3 |
| 20260504212053 | 16 | 128 | 0.0 | 0.0 | 0.00 | 0.00 | 0.00 | 69 | 1012.3 |
| 20260504211553 | 16 | 128 | 0.0 | 0.0 | 0.00 | 0.00 | 0.00 | 68 | 1012.3 |
| 20260504211053 | 16 | 128 | 0.0 | 0.0 | 0.00 | 0.00 | 0.00 | 69 | 1012.3 |
| 20260504210553 | 15 | 128 | 0.0 | 0.0 | 0.00 | 0.00 | 0.00 | 69 | 1012.4 |
| 20260504210153 | 15 | 128 | 0.0 | 0.0 | 0.00 | 0.00 | 0.00 | 70 | 1012.4 |
| 20260504205558 | 15 | 128 | 0.0 | 0.0 | 0.00 | 0.00 | 0.00 | 69 | 1012.4 |
| 20260504205056 | 15 | 128 | 0.0 | 0.0 | 0.00 | 0.00 | 0.00 | 70 | 1012.4 |
| 20260504204550 | 15 | 128 | 0.0 | 0.0 | 0.00 | 0.00 | 0.00 | 70 | 1012.3 |
| 20260504204050 | 15 | 128 | 0.0 | 0.0 | 0.00 | 0.00 | 0.00 | 70 | 1012.3 |
| 20260504203550 | 16 | 128 | 0.0 | 0.0 | 0.00 | 0.00 | 0.00 | 68 | 1012.2 |
| 20260504203105 | 16 | 128 | 0.0 | 0.0 | 0.00 | 0.00 | 0.00 | 68 | 1012.4 |
| 20260504202550 | 16 | 128 | 0.0 | 0.0 | 0.00 | 0.00 | 0.00 | 67 | 1012.4 |
| 20260504202050 | 16 | 128 | 0.0 | 0.0 | 0.00 | 0.00 | 0.00 | 67 | 1012.4 |
| 20260504201555 | 16 | 128 | 0.0 | 0.0 | 0.00 | 0.00 | 0.00 | 66 | 1012.4 |
| 20260504201049 | 16 | 128 | 0.0 | 0.0 | 0.00 | 0.00 | 0.00 | 65 | 1012.4 |
| 20260504200549 | 17 | 128 | 0.0 | 0.0 | 0.00 | 0.00 | 0.00 | 63 | 1012.5 |
| 20260504200148 | 17 | 128 | 0.0 | 0.0 | 0.00 | 0.00 | 0.00 | 63 | 1012.6 |
| 20260504195552 | 17 | 128 | 0.0 | 0.0 | 0.00 | 0.00 | 0.00 | 61 | 1012.5 |
| 20260504195052 | 18 | 128 | 0.0 | 1.6 | 0.00 | 0.00 | 0.00 | 60 | 1012.5 |
| 20260504194546 | 18 | 128 | 0.0 | 1.6 | 0.00 | 0.00 | 0.00 | 60 | 1012.5 |
| 20260504194047 | 18 | 128 | 0.0 | 1.6 | 0.00 | 0.00 | 0.00 | 60 | 1012.4 |
| 20260504193547 | 17 | 128 | 0.0 | 3.2 | 0.00 | 0.00 | 0.00 | 60 | 1012.4 |
| 20260504193044 | 18 | 128 | 0.0 | 3.2 | 0.00 | 0.00 | 0.00 | 60 | 1012.4 |
| 20260504192543 | 17 | 128 | 0.0 | 3.2 | 0.00 | 0.00 | 0.00 | 60 | 1012.5 |
| 20260504192044 | 17 | 128 | 0.0 | 3.2 | 0.00 | 0.00 | 0.00 | 60 | 1012.4 |
| 20260504191549 | 17 | 128 | 0.0 | 3.2 | 0.00 | 0.00 | 0.00 | 60 | 1012.3 |
| 20260504191044 | 17 | 128 | 0.0 | 3.2 | 0.00 | 0.00 | 0.00 | 60 | 1012.3 |
| 20260504190543 | 17 | 128 | 0.0 | 3.2 | 0.00 | 0.00 | 0.00 | 60 | 1012.4 |
| 20260504190142 | 17 | 126 | 0.0 | 1.6 | 0.00 | 0.00 | 0.00 | 60 | 1012.3 |
| 20260504185547 | 17 | 126 | 0.0 | 3.2 | 0.00 | 0.00 | 0.00 | 61 | 1012.2 |
| 20260504185047 | 18 | 126 | 0.0 | 3.2 | 0.00 | 0.00 | 0.00 | 60 | 1012.2 |
| 20260504184546 | 18 | 126 | 0.0 | 3.2 | 0.00 | 0.00 | 0.00 | 59 | 1012.1 |
| 20260504184046 | 18 | 126 | 1.6 | 3.2 | 0.00 | 0.00 | 0.00 | 59 | 1012.1 |
| 20260504183546 | 18 | 126 | 0.0 | 3.2 | 0.00 | 0.00 | 0.00 | 59 | 1012.0 |
| 20260504183046 | 18 | 126 | 0.0 | 1.6 | 0.00 | 0.00 | 0.00 | 59 | 1012.1 |
| 20260504182546 | 18 | 126 | 0.0 | 0.0 | 0.00 | 0.00 | 0.00 | 59 | 1012.1 |
| 20260504182045 | 18 | 126 | 0.0 | 1.6 | 0.00 | 0.00 | 0.00 | 60 | 1012.1 |
| 20260504181646 | 18 | 126 | 0.0 | 1.6 | 0.00 | 0.00 | 0.00 | 59 | 1012.1 |
| 20260504181045 | 18 | 126 | 0.0 | 1.6 | 0.00 | 0.00 | 0.00 | 58 | 1012.1 |
| 20260504180545 | 19 | 126 | 0.0 | 3.2 | 0.00 | 0.00 | 0.00 | 58 | 1012.0 |
| 20260504175546 | 19 | 114 | 0.0 | 0.0 | 0.00 | 0.00 | 0.00 | 58 | 1012.1 |
| 20260504175047 | 19 | 114 | 0.0 | 3.2 | 0.00 | 0.00 | 0.00 | 57 | 1012.1 |
| 20260504174546 | 19 | 114 | 0.0 | 3.2 | 0.00 | 0.00 | 0.00 | 57 | 1012.1 |
| 20260504174046 | 20 | 126 | 0.0 | 3.2 | 0.00 | 0.00 | 0.00 | 56 | 1012.1 |
| 20260504173545 | 20 | 126 | 0.0 | 3.2 | 0.00 | 0.00 | 0.00 | 57 | 1012.1 |
| 20260504173146 | 20 | 126 | 0.0 | 1.6 | 0.00 | 0.00 | 0.00 | 56 | 1012.0 |
| 20260504172644 | 20 | 126 | 0.0 | 3.2 | 0.00 | 0.00 | 0.00 | 56 | 1012.1 |
| 20260504172044 | 20 | 121 | 0.0 | 3.2 | 0.00 | 0.00 | 0.00 | 56 | 1012.1 |
| 20260504171548 | 20 | 121 | 0.0 | 3.2 | 0.00 | 0.00 | 0.00 | 56 | 1012.2 |
| 20260504171043 | 21 | 121 | 0.0 | 6.4 | 0.00 | 0.00 | 0.00 | 55 | 1012.2 |
| 20260504170545 | 21 | 111 | 0.0 | 6.4 | 0.00 | 0.00 | 0.00 | 56 | 1012.2 |
| 20260504170142 | 21 | 85 | 0.0 | 3.2 | 0.00 | 0.00 | 0.00 | 56 | 1012.2 |
| 20260504151027 | 22 | 128 | 1.6 | 4.8 | 0.00 | 0.00 | 0.00 | 46 | 1012.6 |
| 20260504150525 | 22 | 25 | 0.0 | 4.8 | 0.00 | 0.00 | 0.00 | 48 | 1012.6 |
| 20260504141022 | 22 | 37 | 1.6 | 4.8 | 0.00 | 0.00 | 0.00 | 48 | 1013.0 |
| 20260504140523 | 22 | 360 | 0.0 | 4.8 | 0.00 | 0.00 | 0.00 | 49 | 1013.1 |
| 20260504130517 | 22 | 344 | 0.0 | 3.2 | 0.00 | 0.00 | 0.00 | 48 | 1013.4 |
| 20260504110508 | 21 | 58 | 0.0 | 4.8 | 0.00 | 0.00 | 0.00 | 50 | 1014.5 |
| 20260504100502 | 21 | 293 | 0.0 | 3.2 | 0.00 | 0.00 | 0.00 | 52 | 1015.1 |
| 20260504081544 | 17 | 247 | 0.0 | 3.2 | 0.00 | 0.00 | 0.00 | 62 | 1015.0 |
| 20260504081042 | 17 | 305 | 0.0 | 3.2 | 0.00 | 0.00 | 0.00 | 62 | 1014.9 |
| 20260504080544 | 16 | 257 | 1.6 | 6.4 | 0.00 | 0.00 | 0.00 | 63 | 1014.9 |
| 20260504080142 | 16 | 224 | 0.0 | 6.4 | 0.00 | 0.00 | 0.00 | 63 | 1014.9 |
| 20260504070136 | 15 | 5 | 0.0 | 4.8 | 0.00 | 0.00 | 0.00 | 66 | 1014.9 |
| 20260504050533 | 11 | 137 | 0.0 | 3.2 | 0.00 | 0.00 | 0.00 | 77 | 1014.2 |
| 20260504045530 | 11 | 360 | 0.0 | 0.0 | 0.00 | 0.00 | 0.00 | 79 | 1014.0 |
| 20260504045030 | 10 | 360 | 0.0 | 0.0 | 0.00 | 0.00 | 0.00 | 79 | 1014.0 |
| 20260504044538 | 10 | 360 | 0.0 | 0.0 | 0.00 | 0.00 | 0.00 | 79 | 1013.9 |
| 20260504044029 | 10 | 360 | 0.0 | 0.0 | 0.00 | 0.00 | 0.00 | 79 | 1013.9 |
| 20260504043528 | 10 | 360 | 0.0 | 0.0 | 0.00 | 0.00 | 0.00 | 80 | 1013.9 |
| 20260504043028 | 10 | 360 | 0.0 | 0.0 | 0.00 | 0.00 | 0.00 | 79 | 1013.9 |
| 20260504042527 | 10 | 360 | 0.0 | 0.0 | 0.00 | 0.00 | 0.00 | 79 | 1013.8 |
| 20260504042026 | 10 | 360 | 0.0 | 0.0 | 0.00 | 0.00 | 0.00 | 79 | 1013.8 |